#timestamp,LO_Frequency,Hit,StdDev 
1546059615.2,286046999.6,N
1546059635.0,286046998.8,N
1546059635.9,286046998.8,N
1546059655.8,286046998.1,N
1546059675.6,286046999.7,N
1546059695.5,286047001.0,N
1546059715.3,286046998.6,N
1546059735.1,286046999.1,N
1546059755.9,286046999.4,N
1546059775.7,286046999.6,N
1546059795.5,286046999.6,N
1546059815.4,286046998.7,N
1546059835.2,286046999.5,N
1546059855.1,286046999.6,N
1546059856.0,286046999.6,N
1546059875.8,286046997.7,N
1546059895.6,286046997.3,N
1546059915.5,286046996.5,Y
1546059935.3,286047001.0,P
1546059955.2,286047001.1,N
1546059975.9,286046999.9,N
1546059995.7,286047003.2,Y
1546060015.6,286047001.6,P
1546060035.4,286047003.9,P
1546060055.2,286047003.6,N
1546060075.1,286047002.3,N
1546060076.0,286047002.3,N
1546060095.8,286047000.8,N
1546060115.7,286047000.3,N
1546060135.5,286047000.6,N
1546060155.3,286047000.8,N
1546060175.2,286046998.2,N
1546060195.0,286046999.9,N
1546060195.9,286046999.9,N
1546060215.8,286047000.3,N
1546060235.6,286047000.8,N
1546060255.4,286047000.7,N
1546060275.3,286046998.4,N
1546060295.1,286046998.3,N
1546060315.8,286046999.1,N
1546060335.7,286046996.5,N
1546060355.5,286046997.8,N
1546060375.4,286046997.9,N
1546060395.2,286046996.3,N
1546060415.0,286046997.9,N
1546060415.9,286046997.9,N
1546060435.8,286046997.4,N
1546060455.6,286046995.0,N
1546060475.4,286046999.4,N
1546060495.3,286046997.5,N
1546060515.1,286046997.6,N
1546060535.9,286046997.7,N
1546060555.7,286046997.4,N
1546060575.5,286046999.3,N
1546060595.4,286046997.6,N
1546060615.2,286046996.0,N
1546060635.0,286046996.0,N
1546060635.9,286046996.0,N
1546060655.8,286046996.2,N
1546060675.6,286046995.3,N
1546060695.5,286046998.0,N
1546060715.3,286046997.3,N
1546060735.1,286046995.3,Y
1546060755.9,286047000.8,P
1546060775.7,286047002.1,N
1546060795.5,286047002.7,N
1546060815.4,286047002.1,N
1546060835.2,286047000.0,N
1546060855.1,286047000.2,N
1546060856.0,286047000.2,N
1546060875.8,286047001.9,N
1546060895.6,286047002.4,N
1546060915.5,286047002.4,N
1546060935.3,286047002.5,N
1546060955.1,286047001.5,N
1546060975.9,286047001.8,N
1546060995.7,286047001.8,N
1546061015.6,286047002.4,N
1546061035.4,286047002.3,N
1546061055.2,286047011.9,Y
1546061075.1,286046999.7,P
1546061076.0,286046999.7,N
1546061095.8,286047002.6,P
1546061115.7,286047002.3,N
1546061135.5,286047002.8,N
1546061155.3,286047002.1,N
1546061175.2,286047004.4,Y
1546061195.0,286047001.3,P
1546061195.9,286047001.3,P
1546061215.7,286047002.7,P
1546061235.6,286047002.1,Y
1546061255.4,286046999.8,P
1546061275.3,286047000.4,N
1546061295.1,286046999.8,N
1546061296.0,286046999.8,N
1546061315.8,286047002.7,Y
1546061335.7,286046998.4,P
1546061355.5,286046998.1,N
1546061375.4,286046997.1,P
1546061395.2,286046996.6,N
1546061415.0,286046999.3,N
1546061415.9,286046999.3,N
1546061435.8,286046999.3,N
1546061455.6,286046998.2,N
1546061475.4,286046999.6,N
1546061495.3,286046996.5,Y
1546061515.1,286046998.8,P
1546061535.9,286046998.5,P
1546061555.7,286047000.8,P
1546061575.5,286047002.6,N
1546061595.4,286047000.8,N
1546061615.2,286047001.2,N
1546061635.0,286047000.7,N
1546061636.0,286047000.7,N
1546061655.8,286046998.3,N
1546061675.6,286046999.0,N
1546061695.5,286046999.5,N
1546061715.3,286046999.6,N
1546061735.1,286046997.2,N
1546061755.9,286046999.3,N
1546061775.7,286046997.0,N
1546061795.6,286046999.1,N
1546061815.4,286046999.4,N
1546061835.2,286046997.0,N
1546061885.1,286046996.7,E
1546061895.0,286046999.5,N
1546061895.9,286046999.5,P
1546061915.8,286046998.1,P
1546061935.6,286046999.8,N
1546061955.4,286047001.9,N
1546061975.3,286047002.1,N
1546061995.1,286047001.9,N
1546062015.8,286047003.6,N
1546062035.7,286047001.8,N
1546062055.5,286047004.0,N
1546062075.4,286047003.2,N
1546062095.2,286047004.3,N
1546062115.0,286047003.4,N
1546062115.9,286047003.4,N
1546062135.8,286047004.4,N
1546062155.6,286047004.1,N
1546062175.4,286047002.3,N
1546062195.3,286047000.0,N
1546062215.1,286047000.4,N
1546062235.9,286047000.5,N
1546062255.7,286047001.0,N
1546062275.5,286047002.4,N
1546062295.4,286047002.2,N
1546062315.2,286047002.1,N
1546062335.0,286046999.7,N
1546062335.9,286046999.7,N
1546062355.8,286047000.2,N
1546062375.6,286047002.6,N
1546062395.5,286047000.2,N
1546062415.3,286047002.0,N
1546062435.1,286047002.8,N
1546062455.9,286047000.1,N
1546062475.7,286047001.0,N
1546062495.5,286047000.6,N
1546062515.4,286047000.5,N
1546062535.2,286047002.3,N
1546062555.1,286046999.7,N
1546062556.0,286046999.7,N
1546062575.8,286047001.9,N
1546062595.6,286047002.7,N
1546062615.5,286047001.5,N
1546062635.3,286047002.7,N
1546062655.1,286047002.4,N
1546062675.9,286047002.5,N
1546062695.7,286047003.2,N
1546062715.6,286047004.2,Y
1546062735.4,286047000.3,P
1546062755.2,286047001.1,N
1546062775.1,286046998.8,N
1546062776.0,286046998.8,N
1546062795.8,286046998.6,N
1546062815.6,286047001.1,N
1546062835.5,286047000.0,N
1546062855.3,286047000.6,N
1546062875.2,286047001.0,N
1546062895.9,286046999.3,N
1546062915.7,286046999.3,N
1546062935.6,286046999.2,N
1546062955.4,286046996.5,Y
1546062975.2,286046999.5,P
1546062995.1,286046997.0,P
1546062996.0,286046997.0,N
1546063015.8,286046999.1,N
1546063035.7,286046997.0,N
1546063055.5,286046997.2,N
1546063075.3,286046998.8,N
1546063095.2,286047001.0,N
1546063115.0,286046998.7,N
1546063115.9,286046998.7,N
1546063135.8,286047000.1,N
1546063155.6,286047000.1,N
1546063175.4,286047000.2,N
1546063195.3,286047001.9,N
